Weather in Santarém

Portugal     39°14′09″N   8°41′22″W
temp.,
°C
wind,
m/s
gust,
m/s
humid.,
%
clouds,
%
prec.,
mm/h
press.,
hPa
HPBL,
m
24 july, sat
sat2401:00+15nw249436 0.0 101661
04:00+14nw34952 0.0 101567
07:00+14nw24964 0.0 101690
10:00+22nnw46548 0.0 1016840
13:00+28nw663562 0.0 10151452
16:00+27nw88380 0.0 10151272
19:00+23nw79512 0.0 1015869
22:00+17nw488964 0.0 1016260
25 july, sun
sun2501:00+16nw379499 0.0 1016209
04:00+16wnw25951 0.0 1015125
07:00+16wnw26935 0.0 1015152
10:00+24nw466624 0.0 1015856
13:00+28wnw665151 0.1 10141478
16:00+28wnw765249 0.1 10131521
19:00+24nw776327 0.2 10141052
22:00+19nw489475 0.0 1015365
26 july, mon
mon2601:00+21nw598128 0.0 1015703
04:00+17nw48863 0.0 1014226
07:00+16nw48945 0.0 1015256
10:00+24nnw79480 0.0 1016744
13:00+29nnw77310 0.0 10151312
16:00+28nnw99350 0.0 10151123
19:00+24nnw811470 0.0 1014721
22:00+18nnw614790 0.0 1016510
27 july, tue
tue2701:00+17nw511850 0.0 1015371
04:00+16nw37923 0.0 1014218
07:00+16nw25920 0.0 1015113
10:00+24nnw45520 0.0 1015641
13:00+31nw65310 0.0 10141200
16:00+30nnw77270 0.0 10141047
19:00+24nnw811400 0.0 1014692
22:00+18nw511710 0.0 1016383
28 july, wed
wed2801:00+17nw411810 0.0 1015380
04:00+16nnw49830 0.0 1014306
07:00+16nw49850 0.0 1015306
10:00+24nnw68500 0.0 1015746
13:00+28nnw88360 0.0 10151128
16:00+28nnw89360 0.0 10141039
19:00+23nnw811533 0.0 1015744
22:00+17nnw613810 0.0 1015451